Hilton Head Island, SC

1:36 PM EDT on July 22, 2017 (GMT -0400)
Hilton Head

Weather History for KHXD - March, 2013

Change the Weather History Date:

Tuesday, March 12, 2013

  Actual Average Record
Temperature  
Mean Temperature 62 °F -  
Max Temperature 68 °F 71 °F 89 °F (1967)
Min Temperature 57 °F 47 °F 30 °F (1960)
Degree Days  
Heating Degree Days 2    
Growing Degree Days 12 (Base 50)    
Moisture  
Dew Point 59 °F    
Average Humidity 93    
Maximum Humidity 100    
Minimum Humidity 49    
Precipitation  
Precipitation 0.01 in - - ()
Sea Level Pressure  
Sea Level Pressure 29.91 in    
Wind  
Wind Speed 7 mph (SSW)    
Max Wind Speed 12 mph    
Max Gust Speed 23 mph    
Visibility 7 miles    
Events Rain    
Averages and records for this station are not official NWS values.
T = Trace of Precipitation, MM = Missing Value Source: NWS Daily Summary

Daily Weather History Graph

Daily Weather History Graph

Search for Another Location

Airport or City:

Trip Planner

Search our weather history database for the weather conditions in past years. The results will help you decide how hot, cold, wet, or windy it might be!

Date:

Astronomy

Mar. 12, 2013 Rise Set
Actual Time 7:36 AM EDT 7:28 PM EDT
Civil Twilight 7:12 AM EDT 7:53 PM EDT
Nautical Twilight 6:43 AM EDT 8:21 PM EDT
Astronomical Twilight 6:15 AM EDT 8:50 PM EDT
Moon 7:47 AM EDT (3/12) 8:35 PM EDT (3/12)
Length of Visible Light 12h 41m
Length of Day
11h 52m
New Moon, 1% of the Moon is Illuminated
Mar 12
New Moon
Mar 19
First Quarter
Mar 27
Full
Apr 3
Last Quarter
Apr 10
New

Hourly Weather History & Observations

Time (EDT) Temp. Dew Point Humidity Pressure Visibility Wind Dir Wind Speed Gust Speed Precip Events Conditions
12:15 AM 62.6 °F 62.6 °F 100% 29.93 in 8.0 mi South 4.6 mph - 0.00 in   Clear
12:35 AM 62.6 °F 62.6 °F 100% 29.92 in 7.0 mi South 6.9 mph - 0.00 in   Partly Cloudy
12:55 AM 62.6 °F 62.6 °F 100% 29.91 in 8.0 mi South 8.1 mph - 0.00 in   Light Drizzle
1:15 AM 60.8 °F 60.8 °F 100% 29.89 in 7.0 mi SSE 5.8 mph - 0.00 in   Partly Cloudy
1:35 AM 60.8 °F 60.8 °F 100% 29.89 in 7.0 mi South 6.9 mph - 0.00 in   Partly Cloudy
1:55 AM 60.8 °F 60.8 °F 100% 29.88 in 5.0 mi SSE 6.9 mph - 0.00 in Rain Light Rain
2:15 AM 60.8 °F 60.8 °F 100% 29.87 in 5.0 mi SSE 5.8 mph - 0.00 in   Light Drizzle
2:35 AM 60.8 °F 60.8 °F 100% 29.87 in 5.0 mi South 5.8 mph - 0.00 in   Light Drizzle
2:55 AM 60.8 °F 60.8 °F 100% 29.87 in 6.0 mi South 6.9 mph - 0.00 in   Mostly Cloudy
3:15 AM 60.8 °F 60.8 °F 100% 29.88 in 7.0 mi South 6.9 mph - 0.00 in   Mostly Cloudy
3:55 AM 62.6 °F 62.6 °F 100% 29.87 in 6.0 mi South 10.4 mph 17.3 mph 0.00 in   Mostly Cloudy
4:15 AM 62.6 °F 62.6 °F 100% 29.87 in 7.0 mi SSW 9.2 mph 16.1 mph 0.00 in   Mostly Cloudy
5:15 AM 62.6 °F 62.6 °F 100% 29.87 in 5.0 mi SSW 6.9 mph - 0.00 in Rain Light Rain
5:35 AM 62.6 °F 62.6 °F 100% 29.87 in 5.0 mi SSW 9.2 mph - 0.00 in   Scattered Clouds
5:55 AM 62.6 °F 62.6 °F 100% 29.88 in 6.0 mi South 11.5 mph 18.4 mph 0.00 in   Mostly Cloudy
6:15 AM 62.6 °F 62.6 °F 100% 29.87 in 5.0 mi South 8.1 mph 16.1 mph 0.00 in   Partly Cloudy
6:35 AM 62.6 °F 62.6 °F 100% 29.88 in 5.0 mi South 8.1 mph 19.6 mph 0.01 in Rain Light Rain
6:50 AM 60.8 °F 59.0 °F 94% 29.87 in 5.0 mi South 11.5 mph - N/A Rain Light Rain
7:50 AM 60.8 °F 59.0 °F 94% 29.87 in 5.0 mi South 6.9 mph - N/A Rain Light Rain
8:50 AM 62.6 °F 59.0 °F 88% 29.90 in 5.0 mi SSW 11.5 mph - N/A   Overcast
10:50 AM 62.6 °F 60.8 °F 94% 29.90 in 5.0 mi South 11.5 mph 23.0 mph N/A   Overcast
11:50 AM 62.6 °F 60.8 °F 94% 29.91 in 4.0 mi SSW 6.9 mph 17.3 mph N/A   Overcast
12:50 PM 62.6 °F 60.8 °F 94% 29.90 in 4.0 mi SSW 9.2 mph - N/A   Overcast
1:50 PM 62.6 °F 60.8 °F 94% 29.98 in 2.0 mi SW 9.2 mph - N/A   Overcast
2:50 PM 64.4 °F 59.0 °F 83% 29.87 in 10.0 mi West 9.2 mph - N/A   Overcast
3:50 PM 66.2 °F 57.2 °F 73% 29.86 in 10.0 mi SW 9.2 mph - N/A   Partly Cloudy
4:50 PM 66.2 °F 55.4 °F 68% 29.86 in 10.0 mi SW 6.9 mph - N/A   Clear
5:50 PM 68.0 °F 50.0 °F 52% 29.87 in 10.0 mi SW 6.9 mph - N/A   Clear
6:50 PM 66.2 °F 46.4 °F 49% 29.88 in 10.0 mi WSW 4.6 mph - N/A   Clear
7:50 PM 62.6 °F 46.4 °F 55% 29.91 in 10.0 mi WSW 4.6 mph - N/A   Clear
9:15 PM 60.8 °F 60.8 °F 100% 29.95 in 10.0 mi West 6.9 mph - 0.00 in   Clear
9:55 PM 60.8 °F 60.8 °F 100% 29.96 in 10.0 mi West 5.8 mph - 0.00 in   Clear
10:15 PM 59.0 °F 59.0 °F 100% 29.97 in 10.0 mi West 5.8 mph - 0.00 in   Clear
10:35 PM 59.0 °F 59.0 °F 100% 29.97 in 9.0 mi WSW 4.6 mph - 0.00 in   Clear
10:55 PM 57.2 °F 57.2 °F 100% 29.98 in 10.0 mi WSW 5.8 mph - 0.00 in   Clear
11:15 PM 57.2 °F 57.2 °F 100% 29.99 in 10.0 mi WSW 5.8 mph - 0.00 in   Clear
11:35 PM 57.2 °F 57.2 °F 100% 30.00 in 10.0 mi West 5.8 mph - 0.00 in   Clear
11:55 PM 57.2 °F 57.2 °F 100% 30.00 in 10.0 mi West 6.9 mph - 0.00 in   Clear